Regional Weather Roundup
Issued by NWS

Home | Current Version | Previous Version | Graphics & Text | Print | Product List | Glossary On
Versions: 1 2 3 4 5 6 7 8 9 10 11 12 13 14 15 16 17 18 19 20 21 22 23 24 25 26 27 28 29 30 31 32 33 34 35 36 37 38 39 40 41 42 43 44 45 46 47 48 49 50
000
ASUS43 KMKX 012300
RWRWI

WISCONSIN REGIONAL WEATHER ROUNDUP
NATIONAL WEATHER SERVICE MILWAUKEE/SULLIVAN WI
600 PM CDT WED JUL 01 2015

NOTE: "FAIR" INDICATES FEW OR NO CLOUDS BELOW 12,000 FEET WITH NO
SIGNIFICANT WEATHER AND/OR OBSTRUCTIONS TO VISIBILITY.

WIZ001-002-006>008-014>016-023>028-020000-
NORTHWEST WISCONSIN

CITY           SKY/WX    TMP DP  RH WIND       PRES   REMARKS
SUPERIOR ARPT  SUNNY     69  56  65 E7        29.98S
ASHLAND        SUNNY     69  50  50 E5        30.01S
HAYWARD        MOSUNNY   72  51  47 NE7       30.00S
SIREN          MOSUNNY   73  49  43 E3        30.00S
CUMBERLAND     MOSUNNY   70  48  46 N5        30.00S
RICE LAKE      SUNNY     72  50  45 NW3       30.01S
CHETEK         MOSUNNY   72  52  49 CALM      29.99F
LADYSMITH      SUNNY     73  48  41 CALM      30.01S
EAU CLAIRE     NOT AVBL
MENOMONIE      SUNNY     73  50  45 NE3       29.99F
NEW RICHMOND   NOT AVBL
OSCEOLA        PTSUNNY   74  52  45 E5        30.01S
$$

WIZ003>005-009-010-017-018-020000-
NORTH CENTRAL WISCONSIN

CITY           SKY/WX    TMP DP  RH WIND       PRES   REMARKS
MANITOWISH WTR SUNNY     68  46  45 NE6       30.01S
ARBOR VITAE    SUNNY     69  44  39 NE5       30.01S
WOODRUFF       SUNNY     69  44  39 NE5       30.01S
RHINELANDER    SUNNY     69  44  40 VRB5      30.01S
EAGLE RIVER    SUNNY     66  43  42 N6        30.01R
LAND O LAKES   SUNNY     67  43  42 N5        30.02S
PHILLIPS       SUNNY     70  46  41 N5        29.99S
TOMAHAWK       SUNNY     69  42  38 CALM      30.01R
MEDFORD        SUNNY     70  46  42 NE6       30.00S
MERRILL        SUNNY     70  46  42 N7        29.99F
$$

WIZ029-030-035-036-043>047-020000-
CENTRAL WISCONSIN

CITY           SKY/WX    TMP DP  RH WIND       PRES   REMARKS
WAUSAU         SUNNY     72  42  34 NE7       29.97S
MOSINEE        SUNNY     70  45  40 N6        29.99S
MARSHFIELD     SUNNY     72  42  34 VRB5      29.98S
STEVENS POINT  SUNNY     70  44  38 NE6       29.98S
WAUPACA        SUNNY     73  45  35 CALM      29.98S
WAUTOMA        NOT AVBL
WISC RAPIDS    SUNNY     72  45  37 VRB3      29.99S
CAMP DOUGLAS   NOT AVBL
$$

WIZ011>013-019>022-031-037>040-048>050-020000-
NORTHEAST WISCONSIN

CITY           SKY/WX    TMP DP  RH WIND       PRES   REMARKS
ANTIGO         SUNNY     68  47  47 N7        29.99S
SHAWANO        MOSUNNY   73  43  33 NE3       29.96F
OCONTO         MOSUNNY   65  51  60 E8        29.97S
STURGEON BAY   MOSUNNY   63  52  67 NE5       30.00S
GREEN BAY      MOSUNNY   71  52  50 N6        29.97S
MANITOWOC      NOT AVBL
APPLETON       MOSUNNY   66  50  55 VRB5      29.98S
CLINTONVILLE   MOSUNNY   72  43  35 CALM      29.97S
OSHKOSH        PTSUNNY   67  52  58 E9        29.97S
$$

WIZ032>034-041-042-053>061-020000-
SOUTHWEST WISCONSIN

CITY           SKY/WX    TMP DP  RH WIND       PRES   REMARKS
LA CROSSE      MOSUNNY   71  51  49 W5        29.97F
SPARTA         SUNNY     73  43  34 NE3       29.98S
VIROQUA        MOSUNNY   67  48  50 NE5       29.98F
BOSCOBEL       CLOUDY    69  51  52 NE5       29.97F
PRAIRIE DU CHI CLOUDY    65  49  56 CALM      29.97S
PLATTEVILLE    CLOUDY    66  51  58 NE6       29.97S
$$

WIZ056-057-062-063-064-067-068-020000-
SOUTH CENTRAL WISCONSIN

CITY           SKY/WX    TMP DP  RH WIND       PRES   REMARKS
REEDSBURG      MOSUNNY   68  49  51 CALM      29.97S
BARABOO/DELLS  MOSUNNY   70  46  42 CALM      29.97S
LONE ROCK      NOT AVBL
MINERAL POINT  CLOUDY    68  48  49 NE5       29.98S
MADISON        CLOUDY    67  51  56 NE5       29.97S
MIDDLETON      CLOUDY    68  46  44 N3        29.98S
WATERTOWN      CLOUDY    66  55  67 CALM      29.96S
MONROE         CLOUDY    64  50  59 N7        29.97R
JANESVILLE     SUNNY     68  52  56 CALM      29.96S
$$

WIZ051-052-058>065-066-070>072-020000-
SOUTHEAST WISCONSIN

CITY           SKY/WX    TMP DP  RH WIND       PRES   REMARKS
MILWAUKEE      CLOUDY    55  50  83 NE7       30.00R
WAUKESHA       MOSUNNY   57  52  82 E8        29.99S
MILWAUKEE/TIMM NOT AVBL
RACINE         PTSUNNY   55  49  80 NE9       30.01S
BURLINGTON     CLOUDY    60  51  72 E9        29.98R
KENOSHA        PTSUNNY   56  50  80 E7        30.00R
FOND DU LAC    PTSUNNY   67  52  58 NE7       29.98R
SHEBOYGAN      PTSUNNY   62  53  72 CALM      29.99S
WEST BEND      CLOUDY    59  52  77 SE5       30.00R
JUNEAU         PTSUNNY   67  53  59 N8        29.98S
$$

LSZ147-162-020000-
LAKE SUPERIOR

STATION/POSITION TIME  TEMP    WIND        PRES    WAVE
                       AIR SEA DIR/SP/G            HT/PER
                 (UTC) (F)     (DEG/KT/KT) (MB)    (FT/S)
W MID LAKE BUOY  2150   47 39  160/  2/  2 1017.3S   0
DEVILS ISLAND    2200   64     120/  5/  9 1016.3F
SAXON HARBOR     2240   62        CALM     1016.3F
$$

LMZ867-665-643>646-020000-
LAKE MICHIGAN

STATION/POSITION TIME  TEMP    WIND        PRES    WAVE
                       AIR SEA DIR/SP/G            HT/PER
                 (UTC) (F)     (DEG/KT/KT) (MB)    (FT/S)
CHAMBERS ISLAND  2200   63      30/  9/ 12 1015.6S
N MID LAKE BUOY  2150   54 45  230/  4/  4 1015.5F   1/ 4
NORTHPORT PIER   2200   62     360/ 11/ 13 1015.2S
SISTER BAY       2229   66      30/  8/ 13   N/A
ALGOMA LAKESHORE 2240          190/  3/  5   N/A
KEWAUNEE LAKESHO 2200   56     130/  5/  8 1014.9F
SHEBOYGAN LAKESH 2200   54      60/  5/  6 1015.9F
PORT WASHINGTON  2200   56      60/  5/  8 1016.6S
ATWATER BUOY     2200   54      60/  8/ 10 1017.0F
MILWAUKEE LAKESH 2200   53      60/  7/  9   N/A
KENOSHA   LAKESH 2200   53      50/ 10/ 12 1015.6S
$$

TC  - TEMPERATURE IN CELSIUS
VSB - VISIBILITY IN STATUTE MILES
WCI - WIND CHILL INDEX
HX  - HEAT INDEX



USA.gov is the U.S. government's official web portal to all federal, state and local government web resources and services.